Denver Centennial, CO

12:54 AM MDT on June 27, 2017 (GMT -0600)
Centennial

Weather History for KAPA - April, 2014

Change the Weather History Date:

Monday, April 14, 2014

  Actual Average Record
Temperature  
Mean Temperature 27 °F -  
Max Temperature 37 °F 56 °F 80 °F (2002)
Min Temperature 17 °F 31 °F 17 °F (2014)
Degree Days  
Heating Degree Days 38    
Month to date heating degree days 294  
Moisture  
Dew Point 16 °F    
Average Humidity 68    
Maximum Humidity 92    
Minimum Humidity 44    
Precipitation  
Precipitation T in - - ()
Month to date precipitation 0.67  
Year to date precipitation 2.26  
Sea Level Pressure  
Sea Level Pressure 30.33 in    
Wind  
Wind Speed 10 mph (WSW)    
Max Wind Speed 20 mph    
Max Gust Speed 23 mph    
Visibility 7 miles    
Events Snow    
Averages and records for this station are not official NWS values.
T = Trace of Precipitation, MM = Missing Value Source: NWS Daily Summary

Daily Weather History Graph

Daily Weather History Graph

Search for Another Location

Airport or City:

Trip Planner

Search our weather history database for the weather conditions in past years. The results will help you decide how hot, cold, wet, or windy it might be!

Date:

Astronomy

Apr. 14, 2014 Rise Set
Actual Time 6:23 AM MDT 7:36 PM MDT
Civil Twilight 5:55 AM MDT 8:04 PM MDT
Nautical Twilight 5:22 AM MDT 8:37 PM MDT
Astronomical Twilight 4:47 AM MDT 9:12 PM MDT
Moon 7:17 PM MDT (4/14) 5:56 AM MDT (4/14)
Length of Visible Light 14h 08m
Length of Day
13h 12m
Full, 100% of the Moon is Illuminated
Apr 14
Full
Apr 15
Full
Apr 22
Last Quarter
Apr 29
New
May 6
First Quarter

Hourly Weather History & Observations

Time (MDT) Temp. Windchill Dew Point Humidity Pressure Visibility Wind Dir Wind Speed Gust Speed Precip Events Conditions
12:35 AM 19.0 °F 4.0 °F 16.0 °F 88% 30.21 in 1.0 mi North 17.3 mph - 0.00 in Snow Light Snow
12:53 AM 19.0 °F 5.0 °F 16.0 °F 88% 30.37 in 1.0 mi NNW 15.0 mph - 0.00 in Snow Light Snow
1:53 AM 19.0 °F 5.6 °F 16.0 °F 88% 30.38 in 1.0 mi North 13.8 mph - 0.00 in Snow Light Snow
3:53 AM 19.0 °F 8.2 °F 16.0 °F 88% 30.39 in 1.0 mi NNW 9.2 mph - 0.00 in Snow Light Snow
4:53 AM 18.0 °F 6.1 °F 15.1 °F 88% 30.41 in 1.0 mi NNW 10.4 mph - 0.00 in Snow Light Snow
5:13 AM 18.0 °F 6.9 °F 14.0 °F 84% 30.23 in 2.0 mi NNW 9.2 mph - 0.00 in Snow Light Snow
6:21 AM 18.0 °F 8.7 °F 14.0 °F 84% 30.25 in 5.0 mi NNW 6.9 mph - 0.00 in Snow Light Snow
6:43 AM 18.0 °F 11.1 °F 12.9 °F 81% 30.25 in 6.0 mi NW 4.6 mph - 0.00 in   Mostly Cloudy
6:53 AM 18.0 °F 8.7 °F 12.9 °F 81% 30.45 in 7.0 mi NW 6.9 mph - 0.00 in   Mostly Cloudy
7:53 AM 18.0 °F 11.1 °F 14.0 °F 84% 30.46 in 7.0 mi West 4.6 mph - N/A   Mostly Cloudy
8:53 AM 19.9 °F 11.1 °F 14.0 °F 78% 30.46 in 10.0 mi SSW 6.9 mph - N/A   Scattered Clouds
9:53 AM 21.9 °F - 12.9 °F 68% 30.45 in 10.0 mi Calm Calm - N/A   Partly Cloudy
10:53 AM 24.1 °F 19.7 °F 14.0 °F 65% 30.45 in 10.0 mi South 3.5 mph - N/A   Partly Cloudy
12:53 PM 28.0 °F 21.7 °F 16.0 °F 61% 30.40 in 10.0 mi South 5.8 mph - N/A   Partly Cloudy
1:53 PM 30.9 °F 27.5 °F 12.0 °F 46% 30.37 in 10.0 mi Variable 3.5 mph - N/A   Partly Cloudy
3:53 PM 34.0 °F 25.5 °F 17.1 °F 50% 30.31 in 10.0 mi ESE 11.5 mph - N/A   Partly Cloudy
4:53 PM 35.1 °F 29.3 °F 16.0 °F 46% 30.29 in 10.0 mi Variable 6.9 mph - N/A   Partly Cloudy
5:53 PM 36.0 °F 31.1 °F 17.1 °F 46% 30.26 in 10.0 mi East 5.8 mph - N/A   Partly Cloudy
6:53 PM 35.1 °F 30.1 °F 18.0 °F 50% 30.27 in 10.0 mi SE 5.8 mph - N/A   Partly Cloudy
7:53 PM 30.9 °F 25.2 °F 19.9 °F 64% 30.28 in 10.0 mi ESE 5.8 mph - N/A   Partly Cloudy
8:53 PM 30.0 °F 24.1 °F 19.9 °F 66% 30.30 in 10.0 mi SE 5.8 mph - N/A   Partly Cloudy
9:53 PM 30.0 °F 20.5 °F 21.0 °F 69% 30.29 in 10.0 mi South 11.5 mph - N/A   Partly Cloudy
10:53 PM 30.9 °F 22.2 °F 21.9 °F 69% 30.25 in 10.0 mi South 10.4 mph - N/A   Partly Cloudy
11:53 PM 30.9 °F 22.2 °F 21.9 °F 69% 30.22 in 10.0 mi South 10.4 mph - N/A   Clear